Regional Weather Roundup
Issued by NWS Binghamton, NY

Home | Current Version | Previous Version | Text Only | Print | Product List | Glossary On
Versions: 1 2 3 4 5 6 7 8 9 10 11 12 13 14 15 16 17 18 19 20 21 22 23 24 25 26 27 28 29 30 31 32 33 34 35 36 37 38 39 40 41 42 43 44 45 46 47 48 49 50
000
ASUS41 KBGM 121510
RWRBGM
RWRBGM
BINGHAMTON REGIONAL WEATHER ROUNDUP
NATIONAL WEATHER SERVICE BINGHAMTON NY
1100 AM EDT SAT JUL 12 2014

Note: "fair" indicates few or no clouds below 12,000 feet with no
significant weather and/or obstructions to visibility.

* = Station(s) that does not report precipitation, such as rain,
snow, etc, also no thunder or fog.

!NYZ009-015>018-022>025-036-037-044>046-055>057-062-121600
...CENTRAL NEW YORK...

CITY           SKY/WX    TMP DP  RH WIND       PRES   REMARKS
BINGHAMTON     SUNNY     76  64  66 SW7G16    30.21F
CORTLAND       FAIR      77  64  65 S5        30.19F
DANSVILLE      SUNNY     79  65  62 SE5       30.16F
ELMIRA         SUNNY     79  66  64 SW5       30.17F
ITHACA         SUNNY     80  65  60 S6        30.19F
MONTICELLO     NOT AVBL
NORWICH        SUNNY     77  64  65 S7        30.20F
ONEONTA        SUNNY     75  61  60 SW8       30.23F
PENN YAN       SUNNY     78  64  61 S7        30.17F
ROME           MOSUNNY   77  64  64 E6        30.18S
SIDNEY         SUNNY     81  70  69 W3        30.20F
SYRACUSE       PTSUNNY   80  64  58 CALM      30.15S
$$

!PAZ038>040-043-044-047-048-072-121600
...NORTHEAST PENNSYLVANIA...

CITY           SKY/WX    TMP DP  RH WIND       PRES   REMARKS
HAZLETON       MOSUNNY   77  66  69 SW6       30.27F
SCRANTON       MOSUNNY   80  66  62 N3        30.21F
TOWANDA*       MOSUNNY   79  64  61 W10       30.19S
$$
&&
KEY
WCI = WIND CHILL INDEX
VSB = VISIBILITY
HX  = HEAT INDEX
$$


USA.gov is the U.S. government's official web portal to all federal, state and local government web resources and services.